VTMEW VOHS-ZZZZ

Flight info

Callsign VTMEW
Flight time N/A
Altitude 3500
Route VFR
Aircraft C172/L-SFG/C

Departure

Time 2026-04-12 11:01
Airport Rajiv Gandhi International Airport (VOHS)

Arrival

Time N/A
Airport ZZZZ
Time Latitude Longitude Altitude Speed Heading
2026-04-12 10:50 17.22985 78.42239 1961 ft 0 kts 181°
2026-04-12 10:54 17.22984 78.42239 1961 ft 0 kts 181°
2026-04-12 10:57 17.22980 78.42239 1962 ft 0 kts 178°
2026-04-12 10:57 17.22974 78.42239 1962 ft 0 kts 177°
2026-04-12 10:59 17.22972 78.42239 1962 ft 1 kts 177°
2026-04-12 10:59 17.22941 78.42239 1963 ft 7 kts 178°
2026-04-12 10:59 17.22877 78.42249 1964 ft 11 kts 134°
2026-04-12 11:00 17.22871 78.42376 1967 ft 36 kts 88°
2026-04-12 11:00 17.22879 78.42774 2002 ft 65 kts 89°
2026-04-12 11:00 17.22864 78.43259 2112 ft 70 kts 93°
2026-04-12 11:00 17.22867 78.43784 2233 ft 73 kts 90°
2026-04-12 11:01 17.22856 78.44325 2368 ft 73 kts 90°
2026-04-12 11:01 17.22843 78.44854 2511 ft 72 kts 91°
2026-04-12 11:01 17.22833 78.45383 2647 ft 72 kts 92°
2026-04-12 11:01 17.22790 78.45911 2765 ft 75 kts 114°
2026-04-12 11:02 17.22310 78.46123 2873 ft 81 kts 180°
2026-04-12 11:02 17.21744 78.46079 2998 ft 83 kts 183°
2026-04-12 11:02 17.21187 78.45940 3065 ft 89 kts 218°
2026-04-12 11:02 17.21020 78.45322 3101 ft 89 kts 277°
2026-04-12 11:03 17.21069 78.44670 3109 ft 93 kts 272°
2026-04-12 11:03 17.21075 78.43981 3120 ft 94 kts 273°
2026-04-12 11:03 17.21097 78.43276 3090 ft 98 kts 276°
2026-04-12 11:03 17.21128 78.42565 3074 ft 100 kts 272°
2026-04-12 11:04 17.21136 78.41840 3084 ft 98 kts 274°
2026-04-12 11:04 17.21174 78.41125 3078 ft 98 kts 276°
2026-04-12 11:04 17.21219 78.40415 3078 ft 99 kts 275°
2026-04-12 11:04 17.21266 78.39705 3058 ft 99 kts 276°
2026-04-12 11:05 17.21513 78.39033 2901 ft 104 kts 325°
2026-04-12 11:05 17.22164 78.38901 2832 ft 94 kts
2026-04-12 11:05 17.22735 78.39073 2773 ft 80 kts 60°
2026-04-12 11:05 17.22831 78.39693 2509 ft 90 kts 92°
2026-04-12 11:06 17.22834 78.40356 2233 ft 90 kts 89°
2026-04-12 11:06 17.22848 78.40961 2095 ft 75 kts 91°
2026-04-12 11:06 17.22856 78.41489 1974 ft 69 kts 90°
2026-04-12 11:06 17.22866 78.41938 1960 ft 66 kts 88°
2026-04-12 11:07 17.22865 78.42463 2059 ft 74 kts 90°
2026-04-12 11:07 17.22863 78.43005 2191 ft 75 kts 89°
2026-04-12 11:07 17.22855 78.43544 2340 ft 73 kts 89°
2026-04-12 11:07 17.22850 78.44090 2458 ft 76 kts 92°
2026-04-12 11:08 17.22800 78.44638 2601 ft 75 kts 92°
2026-04-12 11:08 17.22645 78.45141 2721 ft 79 kts 146°
2026-04-12 11:08 17.22086 78.45064 2820 ft 85 kts 198°
2026-04-12 11:08 17.21533 78.44825 2946 ft 85 kts 202°
2026-04-12 11:09 17.21148 78.44387 3026 ft 91 kts 264°
2026-04-12 11:09 17.21171 78.43741 3104 ft 88 kts 271°
2026-04-12 11:09 17.21160 78.43103 3174 ft 87 kts 269°
2026-04-12 11:09 17.21154 78.42442 3134 ft 95 kts 272°
2026-04-12 11:10 17.21185 78.41741 3078 ft 98 kts 276°
2026-04-12 11:10 17.21262 78.41028 3031 ft 98 kts 278°
2026-04-12 11:10 17.21326 78.40340 3046 ft 91 kts 276°
2026-04-12 11:10 17.21402 78.39713 3031 ft 84 kts 280°
2026-04-12 11:11 17.21709 78.39269 2937 ft 82 kts 349°
2026-04-12 11:11 17.22266 78.39214 2798 ft 83 kts
2026-04-12 11:11 17.22696 78.39550 2534 ft 86 kts 61°
2026-04-12 11:11 17.22845 78.40157 2262 ft 87 kts 91°
2026-04-12 11:12 17.22844 78.40723 2115 ft 71 kts 89°
2026-04-12 11:12 17.22853 78.41222 2012 ft 68 kts 89°
2026-04-12 11:12 17.22858 78.41692 1962 ft 54 kts 87°
2026-04-12 11:12 17.22866 78.42018 1960 ft 36 kts 89°
2026-04-12 11:13 17.22870 78.42175 1963 ft 11 kts 83°
2026-04-12 11:13 17.22914 78.42232 1964 ft 10 kts 20°
2026-04-12 11:13 17.23001 78.42239 1961 ft 14 kts 360°
2026-04-12 11:13 17.23107 78.42239 1961 ft 14 kts 357°
2026-04-12 11:14 17.23199 78.42234 1967 ft 10 kts 348°
2026-04-12 11:14 17.23230 78.42164 1966 ft 15 kts 268°
2026-04-12 11:14 17.23244 78.42071 1959 ft 11 kts 351°
2026-04-12 11:14 17.23310 78.42071 1960 ft 7 kts 357°
2026-04-12 11:15 17.23360 78.42070 1961 ft 7 kts
2026-04-12 11:15 17.23404 78.42069 1962 ft 5 kts
2026-04-12 11:15 17.23434 78.42069 1962 ft 2 kts 359°
2026-04-12 11:15 17.23440 78.42069 1962 ft 0 kts
2026-04-12 11:16 17.23441 78.42069 1962 ft 0 kts